Weather History for Seward, AK

Change the Weather History Date:

Tuesday, October 16, 2012

  Actual Average Record
Temperature  
Mean Temperature 34 °F -  
Max Temperature 39 °F 45 °F 55 °F (2003)
Min Temperature 30 °F 34 °F 24 °F (1996)
Degree Days  
Heating Degree Days 30    
Moisture  
Dew Point 25 °F    
Average Humidity 69    
Maximum Humidity 86    
Minimum Humidity 57    
Precipitation  
Precipitation 0.02 in - - ()
Sea Level Pressure  
Sea Level Pressure 29.21 in    
Wind  
Wind Speed 17 mph (North)    
Max Wind Speed 24 mph    
Max Gust Speed 33 mph    
Visibility 6 miles    
Events Snow    
Averages and records for this station are not official NWS values.
T = Trace of Precipitation, MM = Missing Value Source: NWS Daily Summary

Daily Weather History Graph

Daily Weather History Graph

Search for Another Location

Airport:

Trip Planner

Search our weather history database for the weather conditions in past years. The results will help you decide how hot, cold, wet, or windy it might be!

Date:

Astronomy

Oct. 16, 2012 Rise Set
Actual Time 8:41 AM AKDT 6:43 PM AKDT
Civil Twilight 7:58 AM AKDT 7:25 PM AKDT
Nautical Twilight 7:10 AM AKDT 8:14 PM AKDT
Astronomical Twilight 6:21 AM AKDT 9:02 PM AKDT
Moon 10:55 AM AKDT (10/16) 6:53 PM AKDT (10/16)
Length of Visible Light 11h 26m
Length of Day
10h 01m
Waxing Crescent, 3% of the Moon is Illuminated
Oct 16
Waxing Crescent
Oct 21
First Quarter
Oct 29
Full
Nov 6
Last Quarter
Nov 13
New

Hourly Weather History & Observations

Time (AKDT) Temp. Windchill Dew Point Humidity Pressure Visibility Wind Dir Wind Speed Gust Speed Precip Events Conditions
12:27 AM 37.4 °F 27.2 °F 30.2 °F 75% 29.01 in 7.0 mi NNW 19.6 mph 28.8 mph 0.02 in Snow Light Snow
12:53 AM 37.9 °F 27.9 °F 30.0 °F 73% 29.02 in 10.0 mi NNW 19.6 mph 28.8 mph 0.02 in   Overcast
1:53 AM 39.0 °F 32.3 °F 28.9 °F 67% 29.03 in 10.0 mi North 10.4 mph 20.7 mph 0.00 in   Overcast
2:53 AM 37.0 °F 28.1 °F 28.9 °F 73% 29.03 in 10.0 mi North 15.0 mph 27.6 mph N/A   Overcast
3:53 AM 37.0 °F 27.0 °F 27.0 °F 67% 29.05 in 9.0 mi NNW 18.4 mph 31.1 mph 0.00 in   Overcast
4:53 AM 37.0 °F 28.1 °F 25.0 °F 62% 29.06 in 10.0 mi North 15.0 mph 31.1 mph 0.00 in   Overcast
5:53 AM 35.1 °F 24.8 °F 25.0 °F 67% 29.08 in 10.0 mi North 17.3 mph 25.3 mph N/A   Scattered Clouds
6:53 AM 35.1 °F 25.5 °F 24.1 °F 64% 29.09 in 10.0 mi North 15.0 mph 24.2 mph N/A   Mostly Cloudy
7:53 AM 36.0 °F 26.7 °F 21.9 °F 57% 29.10 in 10.0 mi North 15.0 mph 29.9 mph N/A   Mostly Cloudy
8:53 AM 35.1 °F 25.5 °F 21.9 °F 59% 29.12 in 10.0 mi North 15.0 mph 26.5 mph N/A   Overcast
9:53 AM 35.1 °F 26.9 °F 23.0 °F 61% 29.14 in 10.0 mi North 11.5 mph 25.3 mph N/A   Overcast
10:53 AM 35.1 °F 25.2 °F 21.9 °F 59% 29.15 in 10.0 mi North 16.1 mph 28.8 mph N/A   Overcast
11:53 AM 35.1 °F 23.3 °F 21.9 °F 59% 29.17 in 10.0 mi North 23.0 mph 32.2 mph N/A   Overcast
12:31 PM 35.6 °F 24.2 °F 23.0 °F 60% 29.18 in 5.0 mi NNW 21.9 mph 33.4 mph 0.00 in Snow Light Snow
12:44 PM 33.8 °F 21.6 °F 24.8 °F 70% 29.18 in 1.2 mi NNW 23.0 mph 33.4 mph 0.00 in Snow Light Snow
12:51 PM 33.8 °F 22.8 °F 24.8 °F 70% 29.18 in 3.0 mi NNW 18.4 mph 32.2 mph 0.00 in Snow Light Snow
12:53 PM 34.0 °F 21.5 °F 24.1 °F 67% 29.18 in 5.0 mi NNW 24.2 mph 32.2 mph 0.00 in Snow Light Snow
1:00 PM 33.8 °F 21.6 °F 24.8 °F 70% 29.19 in 9.0 mi NNW 23.0 mph 32.2 mph 0.00 in   Overcast
1:24 PM 35.6 °F 25.9 °F 23.0 °F 60% 29.19 in 1.8 mi North 16.1 mph 31.1 mph 0.00 in Snow Light Snow
1:31 PM 33.8 °F 22.8 °F 24.8 °F 70% 29.19 in 1.5 mi NNW 18.4 mph 28.8 mph 0.00 in Snow Light Snow
1:50 PM 33.8 °F 22.2 °F 24.8 °F 70% 29.19 in 3.0 mi North 20.7 mph 27.6 mph 0.00 in Snow Light Snow
1:53 PM 34.0 °F 23.4 °F 24.1 °F 67% 29.20 in 4.0 mi NNW 17.3 mph 26.5 mph 0.00 in Snow Light Snow
2:08 PM 35.6 °F 24.2 °F 23.0 °F 60% 29.19 in 9.0 mi North 21.9 mph 29.9 mph 0.00 in   Overcast
2:20 PM 35.6 °F 24.5 °F 23.0 °F 60% 29.20 in 6.0 mi North 20.7 mph 29.9 mph 0.00 in Snow Light Snow
2:48 PM 35.6 °F 25.9 °F 24.8 °F 65% 29.20 in 8.0 mi North 16.1 mph 27.6 mph 0.00 in Snow Light Snow
2:53 PM 35.1 °F 24.8 °F 24.1 °F 64% 29.21 in 7.0 mi North 17.3 mph 27.6 mph 0.00 in Snow Light Snow
3:00 PM 35.6 °F 25.2 °F 23.0 °F 60% 29.21 in 5.0 mi NNW 18.4 mph 27.6 mph 0.00 in Snow Light Snow
3:34 PM 33.8 °F 22.8 °F 24.8 °F 70% 29.22 in 3.0 mi NNW 18.4 mph 26.5 mph 0.00 in Snow Light Snow
3:37 PM 33.8 °F 23.2 °F 24.8 °F 70% 29.22 in 1.8 mi NNW 17.3 mph 26.5 mph 0.00 in Snow Light Snow
3:41 PM 33.8 °F 22.5 °F 24.8 °F 70% 29.22 in 0.8 mi NNW 19.6 mph 26.5 mph 0.00 in Snow Light Snow
3:53 PM 32.0 °F 19.8 °F 26.1 °F 79% 29.23 in 0.5 mi NNW 20.7 mph 29.9 mph 0.00 in Snow Snow
4:12 PM 33.8 °F 22.5 °F 24.8 °F 70% 29.23 in 1.0 mi NNW 19.6 mph 32.2 mph 0.00 in Snow Light Snow
4:18 PM 33.8 °F 21.9 °F 24.8 °F 70% 29.23 in 2.0 mi NNW 21.9 mph 28.8 mph 0.00 in Snow Light Snow
4:28 PM 33.8 °F 22.8 °F 24.8 °F 70% 29.23 in 4.0 mi NNW 18.4 mph 27.6 mph 0.00 in Snow Light Snow
4:41 PM 33.8 °F 21.6 °F 24.8 °F 70% 29.23 in 2.5 mi NNW 23.0 mph 31.1 mph 0.00 in Snow Light Snow
4:51 PM 33.8 °F 21.3 °F 23.0 °F 65% 29.24 in 6.0 mi NNW 24.2 mph 33.4 mph 0.00 in Snow Light Snow
4:53 PM 33.1 °F 20.6 °F 23.0 °F 66% 29.24 in 8.0 mi NNW 23.0 mph 32.2 mph 0.00 in Snow Light Snow
4:58 PM 33.8 °F 21.9 °F 23.0 °F 65% 29.24 in 9.0 mi NNW 21.9 mph 32.2 mph 0.00 in   Overcast
5:53 PM 33.1 °F 20.9 °F 23.0 °F 66% 29.28 in 9.0 mi North 21.9 mph 29.9 mph 0.00 in Snow Light Snow
6:53 PM 33.1 °F 21.2 °F 23.0 °F 66% 29.31 in 8.0 mi North 20.7 mph 29.9 mph 0.00 in Snow Light Snow
7:30 PM 32.0 °F 24.8 °F 24.8 °F 75% 29.36 in 3.0 mi NNE 8.1 mph 19.6 mph 0.00 in Snow Light Snow
7:34 PM 32.0 °F 25.6 °F 24.8 °F 75% 29.37 in 1.8 mi NNE 6.9 mph 19.6 mph 0.00 in Snow Light Snow
7:47 PM 30.2 °F 22.6 °F 26.6 °F 86% 29.37 in 3.0 mi North 8.1 mph - 0.00 in Snow Light Snow
7:53 PM 32.0 °F 24.8 °F 26.1 °F 79% 29.38 in 6.0 mi NNE 8.1 mph - 0.00 in Snow Light Snow
8:09 PM 30.2 °F 22.6 °F 26.6 °F 86% 29.38 in 9.0 mi North 8.1 mph - 0.00 in   Overcast
8:53 PM 30.9 °F 23.5 °F 25.0 °F 79% 29.40 in 10.0 mi North 8.1 mph - 0.00 in   Mostly Cloudy
9:53 PM 30.0 °F 25.2 °F 25.0 °F 82% 29.43 in 10.0 mi NNE 4.6 mph - N/A   Scattered Clouds
10:53 PM 30.9 °F 24.3 °F 25.0 °F 79% 29.47 in 10.0 mi NE 6.9 mph - N/A   Overcast
11:53 PM 30.0 °F 25.2 °F 25.0 °F 82% 29.50 in 10.0 mi NNE 4.6 mph - N/A   Clear